Location: Newark
(52.3500°N, 175.9667°E)
Time: 23:03:45
(UTC+00:00)

Altair - Pass Details

Date: 29 April 2021
Orbit: 1501 x 1683 km, 47.2° (Epoch: 06 May)

Event Time Altitude Azimuth Distance (km) Brightness Sun altitude
Rises 19:08:54 0° 271° (W) 4,881 9.5 20.0°
Reaches altitude 10° 19:12:07 10° 269° (W) 3,873 9.1 20.5°
Maximum altitude 19:21:46 62° 192° (SSW) 1,753 8.1 22.0°
Drops below altitude 10° 19:31:01 10° 115° (ESE) 3,726 11.1 23.4°
Sets 19:34:03 0° 112° (ESE) 4,687 11.3 23.9°
